GFSSE_500_spd_054.txt.gz
Wind_Speed
8 9 9 9 10 11 11 12 12 11 11 11 11 11 11 11 11 11 11 12 12 12 12 12 13 13 13 13 12 12 12 13 14 14 14 15 16 15 14 14 11 8 7
12 13 12 13 13 14 14 14 13 14 13 12 12 12 12 11 10 10 10 10 10 10 10 10 10 11 12 13 12 11 11 11 11 12 13 13 14 15 15 14 12 11 9
14 14 15 15 16 16 17 17 16 16 16 15 15 14 13 13 12 11 10 9 9 8 8 8 8 8 9 11 11 12 12 11 10 10 11 11 12 12 13 13 12 11 10
15 15 15 16 16 16 17 17 18 18 18 17 17 16 15 15 14 13 12 11 11 10 9 8 8 7 8 8 9 10 11 12 11 11 10 10 10 11 9 9 10 8 8
16 16 17 17 18 17 17 17 17 17 17 17 17 17 17 17 17 16 14 14 13 13 12 11 10 10 9 8 8 8 9 9 10 10 10 10 9 9 9 8 7 7 6
20 20 20 21 20 19 18 17 16 15 16 16 16 17 17 17 16 16 15 15 14 14 14 13 13 12 11 10 9 9 9 9 8 9 9 9 9 9 8 8 7 6 6
21 22 21 20 18 17 16 17 17 15 15 14 14 14 15 16 16 16 15 15 15 14 14 14 14 14 13 13 12 10 10 10 11 10 8 7 7 8 8 8 8 8 7
21 20 19 17 16 15 15 15 15 14 14 14 15 16 16 16 16 15 14 14 15 14 14 13 14 14 14 14 13 12 11 11 13 12 11 10 9 8 8 9 9 8 8
22 21 19 17 17 17 15 15 15 18 17 17 17 15 16 15 15 15 14 12 12 14 14 14 14 14 14 15 15 14 13 11 12 15 15 13 12 11 10 9 10 10 10
19 21 19 19 20 19 20 19 17 17 16 14 14 13 14 15 14 14 13 14 14 14 15 15 16 16 17 18 18 18 17 15 13 16 17 18 16 15 14 13 12 11 11
16 14 18 18 18 19 18 16 15 15 15 15 15 13 14 14 14 14 15 15 16 16 17 17 18 19 19 20 21 21 21 21 18 18 19 19 20 19 20 18 16 15 14
20 14 11 13 13 16 19 16 16 15 15 15 17 16 17 18 20 19 20 20 20 20 22 22 22 23 24 24 24 25 26 25 25 22 22 22 24 23 23 24 23 20 19
20 17 16 16 15 15 17 19 19 19 18 17 17 18 19 18 20 22 24 26 26 26 26 28 28 29 29 30 30 30 30 31 31 29 28 26 27 28 27 26 27 27 25
19 19 20 20 19 18 18 19 20 20 19 18 18 20 20 20 20 21 24 26 28 30 30 32 32 33 34 34 34 35 36 36 36 35 33 32 31 32 32 31 30 30 30
21 22 23 23 23 22 21 20 20 20 19 20 20 21 23 24 24 26 28 30 32 34 35 36 38 39 40 40 40 40 40 41 41 40 39 38 37 36 36 35 35 35 34
23 24 24 24 24 24 23 23 22 22 22 24 24 26 27 28 30 32 35 37 38 40 41 41 42 42 44 46 46 46 47 47 46 45 44 43 42 42 41 40 38 39 39
26 25 24 24 25 26 26 27 26 26 28 29 29 30 32 33 35 38 40 43 45 47 48 49 50 50 50 50 50 50 50 50 50 51 50 47 46 45 46 46 44 43 42
27 26 27 27 28 29 29 30 31 32 33 33 34 35 37 39 42 44 47 49 51 52 54 55 56 57 57 57 57 56 56 55 54 54 54 54 51 49 48 48 49 47 47
28 28 29 30 30 31 31 33 34 35 36 37 39 41 44 46 48 51 54 57 59 60 61 62 62 63 63 64 63 62 61 60 60 60 59 58 57 56 54 52 53 51 50
27 28 30 31 31 32 33 34 36 37 39 42 44 46 48 51 52 56 59 60 62 63 65 66 67 67 67 67 68 68 66 65 64 65 66 66 64 61 59 59 58 57 55
29 30 31 33 34 35 36 37 39 42 44 47 49 51 54 57 60 63 65 66 68 68 68 68 67 68 68 69 69 70 71 72 71 71 71 71 71 69 67 63 63 62 61
30 32 33 35 37 37 39 40 43 45 48 50 53 56 60 62 64 66 68 69 69 70 70 72 73 73 74 74 75 75 73 72 72 72 70 69 69 68 67 65 63 64 65
32 34 35 37 40 41 43 45 47 50 52 55 59 62 64 66 68 70 71 72 72 73 74 75 75 75 74 73 73 73 71 69 68 69 72 71 71 72 72 71 68 65 64
34 36 39 42 43 46 48 51 53 55 58 61 64 66 67 69 70 72 73 74 74 74 74 73 72 72 71 71 73 75 75 75 74 72 72 74 76 76 76 75 74 71 67
36 40 43 45 48 50 53 56 59 62 65 68 70 71 72 73 74 74 73 72 71 70 71 72 73 75 76 76 77 77 77 77 78 79 75 74 74 78 78 78 78 76 73
43 46 48 50 52 56 59 63 66 68 70 72 74 75 75 75 73 72 72 72 73 73 73 74 74 75 76 77 78 79 79 79 77 78 79 77 75 72 77 79 80 79 78

GFSSE_500_spd_060.txt.gz
Wind_Speed
11 12 13 13 14 14 14 14 15 15 15 14 14 14 13 14 13 11 10 10 10 9 8 7 8 8 8 8 7 7 8 8 9 9 10 11 12 12 14 13 13 11 11
12 13 13 14 14 14 15 15 15 14 14 14 13 14 14 13 13 13 12 11 11 10 9 9 8 8 8 8 8 8 8 7 7 7 8 10 10 11 12 12 12 13 13
12 13 13 13 14 13 14 15 14 13 13 14 14 14 13 13 13 13 13 13 12 11 10 9 9 8 8 7 7 8 8 7 6 6 6 7 8 8 8 9 9 9 10
11 12 13 14 14 14 13 13 13 12 13 14 14 14 14 14 13 13 13 12 13 13 12 10 9 9 9 8 8 8 7 7 7 6 6 5 6 6 6 5 6 6 6
13 15 16 16 17 16 14 14 13 13 12 13 14 14 14 14 14 13 13 12 12 12 12 11 10 10 10 10 9 10 9 8 7 6 6 5 4 4 4 4 4 3 3
16 16 16 16 15 13 12 12 11 11 12 13 14 14 14 14 14 15 15 14 14 14 13 11 10 10 10 10 10 10 11 10 8 7 6 6 6 5 4 4 3 3 3
17 17 17 16 15 14 13 12 12 12 12 12 13 14 14 15 16 17 16 15 14 15 14 13 11 10 10 10 9 11 12 12 10 10 10 9 8 7 6 6 6 5 5
19 18 18 16 16 15 15 14 14 15 15 16 16 16 18 17 16 16 15 15 15 14 14 14 13 11 11 11 10 9 11 13 14 12 12 12 12 10 10 9 8 8 8
19 18 18 18 17 18 18 17 17 16 16 17 17 17 17 17 15 16 16 16 16 15 14 14 14 14 13 13 13 12 11 12 14 15 14 13 15 14 13 12 12 11 11
19 18 18 18 18 18 17 16 17 16 15 16 17 16 17 19 16 16 15 14 14 15 15 15 16 16 16 16 16 15 14 14 15 16 19 18 16 16 17 16 15 14 14
17 18 18 18 18 18 17 18 18 20 20 20 19 19 20 19 16 16 16 17 16 16 17 18 19 20 21 21 21 21 20 20 20 20 21 22 22 21 19 20 19 19 17
17 17 18 19 19 20 22 22 22 22 22 21 21 21 21 21 20 19 19 18 19 18 18 19 20 21 23 24 25 26 26 25 24 23 24 25 26 26 26 25 24 22 21
18 18 17 17 18 20 23 26 27 25 24 24 25 25 25 23 23 22 22 21 20 20 19 20 22 23 26 28 29 30 31 31 31 31 29 29 29 30 30 29 29 29 27
21 20 19 19 20 21 24 26 28 30 30 30 28 27 27 26 25 24 24 23 23 23 24 25 26 27 29 31 32 34 35 37 37 36 37 35 34 34 34 33 33 32 32
24 24 23 23 23 24 26 27 28 28 29 30 30 29 28 28 28 27 27 27 27 28 29 30 32 33 34 36 38 39 40 40 41 41 41 42 41 40 39 38 38 37 36
26 26 26 27 28 28 28 27 27 27 27 28 29 30 31 31 32 32 32 32 33 33 34 36 37 39 39 40 41 43 44 46 47 46 46 46 45 45 45 43 42 41 41
28 28 28 29 30 31 31 30 29 30 31 31 32 33 34 36 37 37 37 38 39 40 40 42 43 43 45 46 47 49 49 49 50 51 52 51 50 49 49 49 48 47 45
32 32 32 32 33 34 33 33 33 34 35 35 36 36 37 38 39 40 41 42 44 46 47 49 50 50 51 52 52 54 55 56 56 56 55 55 55 54 53 53 53 51 50
33 34 34 34 35 36 36 36 37 37 38 38 39 40 41 42 43 44 45 47 48 50 52 53 55 56 57 59 60 61 62 62 61 61 60 59 58 58 57 57 57 56 55
35 35 36 36 37 38 38 38 39 40 41 41 43 44 45 47 48 49 51 53 54 56 57 58 60 61 63 65 66 67 68 69 69 68 67 65 62 61 61 60 61 60 59
35 35 36 37 38 39 40 41 42 43 44 45 46 48 49 50 52 54 56 58 59 61 63 65 66 68 69 72 72 73 72 73 72 72 73 72 68 66 64 64 64 64 63
35 35 36 37 39 40 41 42 43 46 48 49 50 51 53 54 56 58 60 61 63 65 68 70 72 74 75 77 79 80 78 75 76 75 72 73 72 70 68 66 66 65 65
35 36 38 40 41 42 43 45 47 49 51 52 53 55 57 58 60 62 64 66 67 70 71 73 75 77 78 77 80 83 83 81 77 73 73 73 72 72 71 69 67 65 65
37 38 41 43 44 45 46 48 51 53 55 55 56 58 59 61 63 65 67 67 68 69 70 72 73 75 77 79 79 80 83 84 84 81 74 72 72 73 73 72 71 69 68
40 43 45 46 47 48 50 53 55 57 57 58 60 61 63 63 64 63 63 64 65 67 69 71 74 76 79 80 82 83 83 84 86 88 84 77 75 75 75 76 75 73 72
41 43 46 48 51 53 55 56 58 59 60 61 63 64 64 62 60 60 62 65 69 72 75 78 80 83 86 87 89 90 90 90 89 91 91 88 83 77 77 78 79 79 76

GFSSE_500_spd_063.txt.gz
Wind_Speed
8 8 10 11 11 11 11 11 11 11 10 10 10 11 12 12 11 10 10 10 10 9 10 9 9 8 7 7 7 6 7 6 6 6 7 8 10 11 11 11 11 11 12
8 9 9 9 10 10 10 10 10 9 9 10 10 11 11 11 11 11 10 10 9 9 10 10 9 8 8 7 7 7 6 6 5 4 5 5 6 7 8 8 9 10 11
9 10 10 11 12 13 14 13 12 11 11 10 10 11 12 12 12 11 12 11 10 9 10 10 10 10 9 8 8 7 6 5 5 4 4 3 4 4 5 5 6 7 8
10 11 13 13 14 14 14 13 13 12 12 12 12 12 12 12 12 13 13 12 11 10 10 10 10 10 10 10 10 9 8 6 6 4 4 4 3 2 2 2 2 3 4
12 13 14 13 13 13 12 12 12 11 11 11 12 13 12 13 12 13 13 13 13 12 11 11 10 10 10 10 10 10 10 9 8 7 5 5 5 5 4 2 2 1 2
13 14 14 13 13 13 12 12 11 12 12 13 13 13 13 13 13 14 15 16 16 16 14 13 12 11 10 10 10 11 11 10 10 9 7 6 6 5 6 6 5 4 3
13 13 13 13 14 13 12 12 12 13 14 14 15 15 15 15 16 17 17 16 15 15 14 13 12 12 11 10 10 10 11 11 9 10 10 9 8 7 7 7 7 7 7
14 14 14 15 15 14 14 15 15 15 16 17 18 18 19 19 19 18 17 16 16 16 15 13 11 10 10 10 9 10 12 13 12 10 10 11 11 11 10 9 9 9 9
16 17 18 17 17 16 16 15 13 14 15 15 16 17 18 19 18 17 17 16 16 15 14 13 12 11 11 11 11 10 12 14 15 15 13 13 13 12 12 12 12 11 11
16 17 19 19 18 18 16 13 12 15 17 17 17 18 19 19 18 18 18 16 15 14 14 14 13 13 12 12 12 12 12 13 15 17 18 18 17 15 16 15 14 13 14
17 18 19 20 20 20 19 16 18 20 19 21 21 20 20 20 20 18 19 18 19 18 18 17 17 16 17 16 15 15 15 16 17 18 19 21 21 20 19 20 19 19 18
18 19 21 21 22 21 21 21 21 22 22 23 23 23 23 23 23 22 22 22 21 22 20 20 19 18 18 18 18 19 19 19 19 20 21 22 23 24 24 23 23 23 23
19 19 20 21 22 23 23 24 25 27 27 26 26 27 27 27 26 25 25 24 24 23 22 21 21 21 21 22 22 22 23 23 24 24 25 26 26 27 28 28 28 27 26
21 20 20 21 22 23 24 26 28 30 31 32 31 30 29 27 27 27 27 27 26 26 26 26 26 26 26 27 28 28 28 28 28 29 29 30 30 31 32 32 33 32 31
22 22 23 24 24 25 26 27 29 30 31 32 31 30 29 29 29 29 29 29 29 30 31 31 31 32 33 33 34 35 36 36 35 35 34 35 35 35 36 37 36 37 36
26 26 27 28 28 28 29 29 30 30 31 31 31 30 30 31 32 32 33 34 34 35 36 36 36 37 38 38 38 39 41 42 42 42 42 41 40 41 41 41 41 41 40
29 31 31 31 31 31 31 32 32 32 32 32 32 33 33 34 34 35 37 38 39 40 40 41 41 42 43 44 45 45 45 46 46 47 48 48 48 47 46 45 45 45 45
33 33 33 33 33 34 34 35 35 35 35 34 34 35 35 36 37 37 38 40 41 42 44 45 46 48 49 50 51 51 51 51 52 53 53 54 53 53 53 52 50 49 48
34 35 34 34 35 35 36 37 36 36 36 37 37 38 39 40 41 42 43 44 45 46 47 49 51 52 54 55 56 57 58 58 59 59 59 59 59 58 57 57 56 55 53
36 35 35 36 37 37 38 37 37 37 38 39 40 41 43 43 45 46 47 49 50 52 53 55 56 58 59 60 61 62 63 64 65 66 66 67 66 65 63 61 60 59 58
36 36 36 37 37 37 38 39 39 41 42 43 44 45 46 47 49 50 52 54 55 57 58 60 61 63 65 66 67 68 69 70 71 71 71 73 73 72 69 67 64 62 61
36 35 35 36 37 38 39 41 42 44 45 47 47 48 50 51 53 54 56 58 60 61 63 64 66 67 69 71 73 74 74 72 73 73 75 74 74 74 73 71 67 65 63
34 35 35 36 37 39 40 42 44 47 49 50 50 52 54 55 57 58 61 62 63 64 65 67 68 70 71 69 70 74 75 75 73 70 71 73 74 75 75 74 72 70 66
34 35 37 39 41 43 44 46 47 50 52 54 55 55 57 59 61 63 64 66 67 67 67 66 66 67 68 69 68 71 74 76 78 76 74 76 78 79 79 79 78 76 72
36 39 41 42 44 45 47 50 52 54 55 56 58 59 61 62 64 65 66 66 67 68 67 67 67 68 71 73 76 77 78 80 83 86 84 82 83 84 83 83 83 82 79
38 40 41 44 47 49 51 53 55 57 59 61 62 63 64 65 65 65 67 68 68 68 69 70 73 76 80 82 84 85 87 89 91 94 95 94 92 88 88 86 84 83 83

GFSSE_500_spd_069.txt.gz
Wind_Speed
8 9 10 11 10 9 9 10 12 13 13 12 12 12 12 12 11 10 10 11 11 11 11 10 9 9 8 9 9 10 9 9 8 8 9 9 8 8 8 9 10 11 11
10 12 12 12 12 11 10 11 12 13 13 13 13 12 13 13 13 12 12 12 12 13 13 12 12 11 10 9 9 9 9 9 8 8 7 7 7 7 6 6 8 9 9
12 13 14 14 12 12 12 12 12 13 13 13 13 13 13 14 15 14 14 14 14 14 14 14 14 14 13 11 10 9 9 9 9 7 8 7 6 6 6 6 6 6 7
14 15 15 14 13 12 13 12 12 12 12 12 12 13 14 14 15 15 15 15 15 15 15 15 15 15 14 14 13 11 11 10 9 8 7 7 7 6 6 6 6 6 5
16 16 15 14 13 13 13 13 13 13 13 12 13 14 15 16 16 16 16 16 16 16 17 17 17 16 15 15 14 13 12 11 10 9 8 7 7 7 6 6 6 6 6
17 15 14 14 14 14 14 14 14 14 15 15 15 16 17 17 17 17 17 18 18 18 17 17 16 16 16 15 14 13 11 11 10 9 9 8 8 7 7 6 6 6 6
16 15 14 14 14 15 15 15 16 16 17 17 17 17 18 18 18 19 19 20 19 18 17 17 16 15 15 14 13 13 10 10 10 8 8 9 9 8 8 8 8 7 6
16 14 14 14 15 15 16 16 17 17 17 16 16 16 16 17 18 19 19 20 19 19 19 18 18 17 15 14 13 13 12 10 10 10 9 8 8 8 8 8 9 9 9
17 16 15 16 16 17 17 18 17 17 15 16 18 19 19 19 19 20 20 21 21 21 20 19 18 17 16 15 14 14 13 12 11 9 8 8 8 8 8 8 8 9 10
18 17 17 18 18 19 17 18 20 20 19 21 22 21 21 21 21 20 21 21 22 22 20 20 19 19 18 18 17 16 17 15 14 12 11 12 11 11 11 10 10 10 10
20 20 19 20 20 20 20 21 22 22 22 23 23 23 23 22 21 22 22 24 23 24 23 23 23 23 22 22 22 21 21 20 18 17 15 15 14 14 13 13 13 13 13
22 22 21 21 22 22 24 24 24 24 25 26 25 25 25 24 24 24 25 26 26 26 27 27 27 27 26 26 25 24 24 23 22 21 18 18 18 17 16 16 16 16 15
23 24 24 23 24 26 26 26 26 27 27 28 28 28 27 27 27 28 27 27 27 28 28 29 30 30 30 29 28 27 26 25 25 24 22 23 22 21 21 20 19 19 19
24 25 26 26 27 27 28 29 31 31 31 31 31 31 31 30 30 30 29 29 29 28 29 30 31 31 32 32 31 31 31 30 30 29 28 29 28 27 27 26 25 24 24
27 27 28 29 29 30 31 32 32 33 34 34 34 34 34 34 34 33 32 32 32 32 31 31 32 33 33 34 35 35 36 36 37 36 35 34 35 34 34 33 32 30 29
29 31 31 32 32 33 33 33 33 34 34 34 35 35 36 36 35 35 35 35 35 35 35 35 36 36 37 38 39 40 40 41 42 42 42 41 40 40 39 39 39 38 36
32 33 34 34 35 34 34 34 34 34 34 34 35 36 36 36 35 35 35 36 37 37 38 39 39 39 40 41 42 43 43 44 45 46 47 46 46 46 46 45 44 44 43
32 33 34 34 34 34 34 34 34 34 35 35 35 35 35 34 35 36 37 38 39 40 41 42 42 43 44 45 45 45 46 47 48 49 49 50 50 50 50 51 50 50 49
33 33 33 34 34 35 35 35 35 35 34 34 34 34 34 35 37 38 39 40 41 43 44 45 46 47 47 48 49 49 50 51 52 53 53 53 54 54 54 54 53 54 54
34 34 34 36 37 37 36 36 36 35 35 35 35 35 36 38 39 41 42 43 45 47 48 49 50 50 51 52 52 53 54 55 56 57 58 58 59 58 58 58 58 57 58
36 36 37 37 37 36 35 36 36 35 35 35 36 37 39 41 43 45 47 48 49 50 52 53 54 55 55 57 57 57 57 59 59 61 61 61 63 63 63 63 63 62 62
36 36 36 36 36 35 35 35 34 35 36 38 39 42 44 46 47 50 51 53 54 55 56 57 58 59 60 60 62 63 62 61 64 65 65 65 67 68 68 68 67 66 65
37 36 34 35 34 34 34 35 36 38 41 42 44 46 48 50 52 54 56 57 58 58 59 61 62 63 64 63 65 68 69 69 68 66 69 69 68 68 70 71 70 70 69
34 33 34 34 35 36 37 38 40 42 44 47 49 52 54 55 57 58 59 60 61 62 63 64 64 64 66 66 66 67 71 74 75 74 70 71 71 72 72 73 73 74 72
33 34 36 37 38 39 40 42 44 47 50 53 55 57 58 60 61 62 63 64 65 65 65 65 65 66 67 69 70 71 71 73 75 78 80 76 75 74 73 74 76 78 77
35 37 39 40 42 43 45 47 49 52 55 58 60 61 62 64 64 64 64 64 65 65 66 66 67 67 68 69 70 72 73 74 75 77 79 79 81 80 80 79 79 81 81

GFSSE_500_spd_072.txt.gz
Wind_Speed
10 11 11 12 13 13 11 11 10 11 12 12 12 12 11 12 12 12 12 13 13 13 13 13 13 13 12 12 11 10 10 10 10 10 10 10 10 11 11 12 13 13 14
12 13 14 14 13 13 13 12 12 12 12 12 12 11 11 12 12 13 13 13 14 14 14 14 14 13 13 13 13 12 11 10 9 10 9 9 9 9 10 9 10 11 11
15 16 15 16 16 14 12 12 12 12 12 12 12 12 12 13 13 13 14 14 14 14 14 15 15 15 14 14 14 13 12 11 10 9 8 8 8 7 8 8 8 8 8
16 18 18 17 16 14 12 12 12 13 12 12 13 13 13 13 14 15 15 15 15 15 15 16 16 16 15 14 14 13 12 12 11 9 8 7 7 6 7 7 7 7 7
18 18 18 17 16 13 12 13 13 13 13 13 14 14 14 15 15 15 15 16 16 16 17 17 17 16 15 15 15 13 12 10 10 10 9 8 7 6 6 6 6 6 6
19 19 18 17 15 14 13 14 13 14 15 15 15 16 15 16 16 16 17 18 17 18 18 18 17 17 16 15 15 13 11 10 8 8 7 7 7 7 6 5 5 5 5
19 19 18 17 16 15 14 15 15 15 16 16 16 16 15 16 16 17 17 18 18 18 18 18 18 17 17 16 15 13 10 10 9 8 6 7 7 6 7 6 5 5 5
19 19 18 17 16 16 16 16 16 16 16 16 16 15 15 17 18 18 18 19 19 19 19 19 19 19 18 17 17 15 13 11 11 11 7 9 7 7 6 6 5 4 4
22 19 18 17 17 17 16 16 17 15 18 19 18 19 19 19 20 21 21 20 20 19 19 20 19 19 18 18 18 18 16 14 13 12 8 11 8 8 7 7 7 6 5
24 19 20 18 19 19 18 18 18 19 20 20 20 21 22 21 22 22 21 20 20 21 21 21 20 19 19 19 19 19 19 18 16 14 13 13 12 11 10 10 9 9 8
24 19 21 20 21 21 19 20 19 20 21 21 22 22 24 24 23 23 23 23 22 24 25 24 22 22 22 23 23 23 23 23 22 19 17 17 15 14 14 13 12 11 11
23 22 23 21 23 23 23 22 22 22 23 24 24 25 25 26 26 25 25 25 25 25 26 27 26 26 26 26 27 26 26 26 26 25 21 22 20 18 16 16 15 14 14
23 26 24 24 25 26 26 26 25 25 26 26 27 27 28 28 28 27 27 27 28 28 28 28 28 28 28 29 28 28 28 28 28 28 26 26 24 23 21 19 19 18 17
22 26 27 27 26 27 30 29 30 30 31 31 30 30 30 30 30 29 29 30 30 30 30 30 29 30 30 30 30 30 29 30 30 31 29 30 30 28 27 26 24 24 23
24 27 27 30 31 31 31 32 33 34 34 33 33 33 32 32 32 32 32 32 32 32 33 32 32 32 32 32 33 33 33 33 34 34 34 34 36 35 34 33 32 31 30
25 28 30 32 33 33 34 34 35 35 35 35 34 34 34 34 34 34 35 35 35 34 35 35 35 35 35 35 35 36 37 37 38 38 38 38 38 39 39 38 38 37 36
25 30 30 34 34 33 35 35 35 35 34 35 34 34 34 35 35 35 35 36 37 37 37 37 37 37 37 37 38 39 40 40 40 41 41 41 41 41 42 43 42 42 41
27 31 33 34 35 34 35 35 35 35 35 35 35 35 35 35 35 35 36 37 38 38 38 39 39 40 40 41 41 42 42 43 43 44 44 45 44 44 45 45 47 47 46
30 31 33 34 35 35 36 36 36 37 37 37 36 36 35 35 36 37 38 39 39 40 41 42 42 43 44 45 45 46 47 47 48 48 48 48 48 48 48 49 49 50 51
34 33 33 35 36 37 38 37 37 37 37 37 36 36 36 37 38 39 40 41 42 44 45 46 47 48 49 49 49 50 50 51 52 53 53 54 54 55 55 53 53 53 53
36 36 34 36 37 37 38 38 38 37 37 38 38 38 39 39 40 42 43 45 47 48 49 50 51 52 53 54 54 53 53 54 56 56 56 57 57 58 59 59 59 57 57
37 37 36 36 37 37 37 37 38 37 38 39 40 41 42 43 45 47 48 50 52 53 54 55 56 56 56 58 59 59 58 57 59 60 61 61 61 62 62 63 63 62 62
38 37 38 36 37 37 38 39 40 40 42 43 42 43 45 48 50 52 54 56 57 58 58 59 60 61 61 61 63 65 65 64 63 60 62 65 65 65 65 64 66 67 67
36 35 37 38 37 38 39 41 42 42 43 46 47 49 51 53 56 58 59 60 60 62 63 63 64 64 65 64 63 63 66 68 69 67 61 62 64 66 67 68 69 69 69
35 35 38 39 41 41 42 42 44 46 48 51 53 56 58 60 61 62 63 64 65 65 64 64 63 63 63 64 64 63 63 64 66 71 73 64 64 65 66 68 69 70 71
36 38 39 41 42 44 45 47 48 51 54 56 59 61 63 64 65 66 66 65 64 64 63 63 63 63 63 63 63 64 65 65 65 69 72 73 74 70 70 71 73 73 74